Weather History for Sturgeon Bay, WI

Change the Weather History Date:

Saturday, January 24, 2015

  Actual Average Record
Temperature  
Mean Temperature 30 °F -  
Max Temperature 39 °F 28 °F 44 °F (1947)
Min Temperature 21 °F 12 °F -25 °F (1935)
Degree Days  
Heating Degree Days 35    
Moisture  
Dew Point 25 °F    
Average Humidity 76    
Maximum Humidity 86    
Minimum Humidity 65    
Precipitation  
Precipitation 0.00 in - - ()
Sea Level Pressure  
Sea Level Pressure 29.65 in    
Wind  
Wind Speed 9 mph (WNW)    
Max Wind Speed 21 mph    
Max Gust Speed 23 mph    
Visibility 10 miles    
Events      
Averages and records for this station are not official NWS values.
T = Trace of Precipitation, MM = Missing Value Source: NWS Daily Summary

Daily Weather History Graph

Daily Weather History Graph

Search for Another Location

Airport:

Trip Planner

Search our weather history database for the weather conditions in past years. The results will help you decide how hot, cold, wet, or windy it might be!

Date:

Astronomy

Jan. 24, 2015 Rise Set
Actual Time 7:17 AM CST 4:46 PM CST
Civil Twilight 6:45 AM CST 5:18 PM CST
Nautical Twilight 6:09 AM CST 5:54 PM CST
Astronomical Twilight 5:35 AM CST 6:28 PM CST
Moon 9:32 AM CST (1/24) 10:18 PM CST (1/24)
Length of Visible Light 10h 32m
Length of Day
9h 29m
Waxing Crescent, 24% of the Moon is Illuminated
Jan 24
Waxing Crescent
Jan 26
First Quarter
Feb 3
Full
Feb 11
Last Quarter
Feb 18
New

Hourly Weather History & Observations

Time (CST) Temp. Windchill Dew Point Humidity Pressure Visibility Wind Dir Wind Speed Gust Speed Precip Events Conditions
12:15 AM 30.2 °F 21.3 °F 24.8 °F 80% 29.68 in 10.0 mi WSW 10.4 mph - N/A   Overcast
12:35 AM 30.2 °F 21.3 °F 24.8 °F 80% 29.68 in 10.0 mi WSW 10.4 mph - N/A   Overcast
12:55 AM 30.2 °F 22.6 °F 24.8 °F 80% 29.68 in 10.0 mi West 8.1 mph - N/A   Overcast
1:15 AM 30.2 °F 21.9 °F 24.8 °F 80% 29.67 in 10.0 mi West 9.2 mph - N/A   Overcast
1:35 AM 30.2 °F 21.9 °F 24.8 °F 80% 29.67 in 10.0 mi West 9.2 mph - N/A   Overcast
1:55 AM 30.2 °F 21.9 °F 24.8 °F 80% 29.67 in 10.0 mi West 9.2 mph - N/A   Overcast
2:35 AM 30.2 °F 23.4 °F 24.8 °F 80% 29.66 in 10.0 mi West 6.9 mph - N/A   Overcast
2:55 AM 30.2 °F 23.4 °F 24.8 °F 80% 29.65 in 10.0 mi West 6.9 mph - N/A   Overcast
3:15 AM 30.2 °F 23.4 °F 24.8 °F 80% 29.65 in 10.0 mi West 6.9 mph - N/A   Mostly Cloudy
3:35 AM 30.2 °F 22.6 °F 24.8 °F 80% 29.64 in 10.0 mi WSW 8.1 mph - N/A   Overcast
3:55 AM 30.2 °F 24.3 °F 24.8 °F 80% 29.64 in 10.0 mi WSW 5.8 mph - N/A   Overcast
4:15 AM 30.2 °F 23.4 °F 24.8 °F 80% 29.63 in 10.0 mi WSW 6.9 mph - N/A   Overcast
4:35 AM 30.2 °F 24.3 °F 26.6 °F 86% 29.63 in 10.0 mi WSW 5.8 mph - N/A   Overcast
4:55 AM 32.0 °F 25.6 °F 26.6 °F 80% 29.63 in 10.0 mi West 6.9 mph - N/A   Overcast
5:15 AM 33.8 °F 27.7 °F 26.6 °F 75% 29.63 in 10.0 mi WSW 6.9 mph - N/A   Overcast
5:35 AM 33.8 °F 27.0 °F 26.6 °F 75% 29.64 in 10.0 mi West 8.1 mph - N/A   Overcast
5:55 AM 33.8 °F 25.8 °F 26.6 °F 75% 29.64 in 10.0 mi West 10.4 mph - N/A   Overcast
6:15 AM 33.8 °F 25.8 °F 26.6 °F 75% 29.64 in 10.0 mi West 10.4 mph - N/A   Overcast
6:35 AM 32.0 °F 24.2 °F 26.6 °F 80% 29.64 in 10.0 mi West 9.2 mph - N/A   Overcast
6:55 AM 32.0 °F 24.2 °F 26.6 °F 80% 29.64 in 10.0 mi West 9.2 mph - N/A   Overcast
7:15 AM 32.0 °F 24.8 °F 26.6 °F 80% 29.63 in 10.0 mi West 8.1 mph - N/A   Overcast
7:35 AM 32.0 °F 24.8 °F 26.6 °F 80% 29.63 in 10.0 mi West 8.1 mph - N/A   Scattered Clouds
7:55 AM 30.2 °F 22.6 °F 26.6 °F 86% 29.62 in 10.0 mi WSW 8.1 mph - N/A   Clear
8:15 AM 30.2 °F 23.4 °F 26.6 °F 86% 29.62 in 10.0 mi West 6.9 mph - N/A   Clear
8:35 AM 32.0 °F 24.2 °F 26.6 °F 80% 29.61 in 10.0 mi West 9.2 mph - N/A   Mostly Cloudy
8:55 AM 33.8 °F 26.4 °F 26.6 °F 75% 29.61 in 10.0 mi West 9.2 mph - N/A   Overcast
9:15 AM 33.8 °F 27.0 °F 28.4 °F 81% 29.61 in 10.0 mi West 8.1 mph - N/A   Overcast
9:35 AM 33.8 °F 27.0 °F 28.4 °F 81% 29.61 in 10.0 mi West 8.1 mph - N/A   Overcast
9:55 AM 35.6 °F 28.0 °F 28.4 °F 75% 29.60 in 10.0 mi West 10.4 mph - N/A   Overcast
10:15 AM 35.6 °F 28.6 °F 30.2 °F 81% 29.61 in 10.0 mi West 9.2 mph - N/A   Overcast
10:35 AM 37.4 °F 31.4 °F 30.2 °F 75% 29.61 in 10.0 mi West 8.1 mph - N/A   Overcast
10:55 AM 37.4 °F 29.3 °F 30.2 °F 75% 29.60 in 10.0 mi West 12.7 mph 17.3 mph N/A   Overcast
11:15 AM 37.4 °F 30.3 °F 30.2 °F 75% 29.60 in 10.0 mi WNW 10.4 mph - N/A   Overcast
11:35 AM 37.4 °F 30.8 °F 30.2 °F 75% 29.59 in 10.0 mi WNW 9.2 mph - N/A   Overcast
11:55 AM 37.4 °F 32.1 °F 28.4 °F 70% 29.59 in 10.0 mi West 6.9 mph - N/A   Overcast
12:15 PM 39.2 °F 33.0 °F 28.4 °F 65% 29.58 in 10.0 mi West 9.2 mph - N/A   Overcast
12:35 PM 37.4 °F 31.4 °F 30.2 °F 75% 29.58 in 10.0 mi West 8.1 mph - N/A   Overcast
12:55 PM 37.4 °F 32.1 °F 28.4 °F 70% 29.57 in 10.0 mi West 6.9 mph - N/A   Overcast
1:15 PM 37.4 °F 32.1 °F 28.4 °F 70% 29.57 in 10.0 mi West 6.9 mph - N/A   Overcast
1:35 PM 37.4 °F 32.1 °F 28.4 °F 70% 29.57 in 10.0 mi West 6.9 mph - N/A   Overcast
1:55 PM 37.4 °F 32.1 °F 28.4 °F 70% 29.57 in 10.0 mi West 6.9 mph - N/A   Overcast
2:15 PM 37.4 °F 31.4 °F 30.2 °F 75% 29.55 in 10.0 mi WSW 8.1 mph - N/A   Mostly Cloudy
2:35 PM 37.4 °F 32.8 °F 30.2 °F 75% 29.56 in 10.0 mi West 5.8 mph - N/A   Overcast
2:55 PM 37.4 °F 30.8 °F 30.2 °F 75% 29.57 in 10.0 mi WSW 9.2 mph - N/A   Mostly Cloudy
3:15 PM 37.4 °F 32.8 °F 30.2 °F 75% 29.57 in 10.0 mi West 5.8 mph - N/A   Overcast
3:35 PM 37.4 °F 31.4 °F 28.4 °F 70% 29.58 in 10.0 mi West 8.1 mph - N/A   Overcast
3:55 PM 37.4 °F 32.8 °F 30.2 °F 75% 29.59 in 10.0 mi West 5.8 mph - N/A   Overcast
4:15 PM 37.4 °F 30.8 °F 28.4 °F 70% 29.60 in 10.0 mi NNW 9.2 mph - N/A   Overcast
4:35 PM 35.6 °F 29.2 °F 28.4 °F 75% 29.62 in 10.0 mi North 8.1 mph - N/A   Overcast
4:55 PM 33.8 °F 27.7 °F 28.4 °F 81% 29.64 in 10.0 mi ENE 6.9 mph - N/A   Overcast
5:15 PM 33.8 °F 26.4 °F 28.4 °F 81% 29.65 in 10.0 mi NE 9.2 mph - N/A   Overcast
5:35 PM 30.2 °F 18.9 °F 24.8 °F 80% 29.66 in 10.0 mi NNE 16.1 mph 20.7 mph N/A   Overcast
5:55 PM 28.4 °F 16.6 °F 23.0 °F 80% 29.67 in 10.0 mi NNE 16.1 mph - N/A   Overcast
6:15 PM 28.4 °F 17.0 °F 21.2 °F 74% 29.68 in 10.0 mi NE 15.0 mph 23.0 mph N/A   Overcast
6:35 PM 28.4 °F 16.6 °F 21.2 °F 74% 29.69 in 10.0 mi NE 16.1 mph - N/A   Overcast
6:55 PM 26.6 °F 16.8 °F 21.2 °F 80% 29.70 in 10.0 mi NNE 10.4 mph - N/A   Overcast
7:15 PM 26.6 °F 14.7 °F 21.2 °F 80% 29.71 in 10.0 mi NNE 15.0 mph - N/A   Overcast
7:35 PM 26.6 °F 15.2 °F 19.4 °F 74% 29.72 in 10.0 mi NE 13.8 mph 20.7 mph N/A   Overcast
7:55 PM 24.8 °F 12.4 °F 19.4 °F 80% 29.73 in 10.0 mi NE 15.0 mph 21.9 mph N/A   Overcast
8:15 PM 24.8 °F 14.0 °F 17.6 °F 74% 29.73 in 10.0 mi NNE 11.5 mph 21.9 mph N/A   Overcast
8:35 PM 24.8 °F 12.9 °F 17.6 °F 74% 29.74 in 10.0 mi NNE 13.8 mph - N/A   Overcast
8:55 PM 24.8 °F 13.4 °F 15.8 °F 69% 29.74 in 10.0 mi NNE 12.7 mph - N/A   Overcast
9:15 PM 23.0 °F 8.0 °F 14.0 °F 68% 29.75 in 10.0 mi NNE 20.7 mph - N/A   Overcast
9:35 PM 23.0 °F 10.6 °F 15.8 °F 74% 29.76 in 10.0 mi NNE 13.8 mph 20.7 mph N/A   Overcast
9:55 PM 21.2 °F 8.3 °F 14.0 °F 74% 29.77 in 10.0 mi NNE 13.8 mph 20.7 mph N/A   Overcast
10:15 PM 21.2 °F 6.8 °F 14.0 °F 74% 29.78 in 10.0 mi NNE 17.3 mph - N/A   Overcast
10:35 PM 21.2 °F 7.8 °F 12.2 °F 68% 29.79 in 10.0 mi NNE 15.0 mph 21.9 mph N/A   Overcast
10:55 PM 21.2 °F 9.5 °F 12.2 °F 68% 29.79 in 10.0 mi NE 11.5 mph - N/A   Overcast
11:15 PM 21.2 °F 8.9 °F 12.2 °F 68% 29.80 in 10.0 mi NNE 12.7 mph - N/A   Overcast
11:35 PM 21.2 °F 10.9 °F 12.2 °F 68% 29.80 in 10.0 mi NE 9.2 mph - N/A   Overcast
11:55 PM 21.2 °F 9.5 °F 12.2 °F 68% 29.80 in 10.0 mi NE 11.5 mph 17.3 mph N/A   Overcast